CDT,Max TemperatureF,Mean TemperatureF,Min TemperatureF,Max Dew PointF,MeanDew PointF,Min DewpointF,Max Humidity, Mean Humidity, Min Humidity, Max Sea Level PressureIn, Mean Sea Level PressureIn, Min Sea Level PressureIn, Max VisibilityMiles, Mean VisibilityMiles, Min VisibilityMiles, Max Wind SpeedMPH, Mean Wind SpeedMPH, Max Gust SpeedMPH,PrecipitationIn, CloudCover, Events, WindDirDegrees
2013-6-1,88,79,70,73,70,68,94,79,55,30.04,30.01,29.96,10,10,10,12,4,16,0.02,5,Thunderstorm,155
2013-6-2,86,78,71,73,70,68,96,84,57,30.00,29.94,29.87,10,8,0,17,4,22,0.63,3,Fog-Rain-Thunderstorm,201
2013-6-3,86,77,68,72,69,66,97,82,57,29.96,29.91,29.86,10,8,0,12,2,18,0.06,4,Fog-Rain,257
2013-6-4,91,80,69,73,70,66,94,74,44,29.98,29.93,29.88,10,10,8,8,2,,0.00,2,,171
2013-6-5,90,80,69,72,69,64,100,83,48,30.00,29.93,29.85,10,9,1,18,4,25,0.32,5,Rain-Thunderstorm,143
2013-6-6,82,75,68,70,68,66,96,83,63,29.91,29.81,29.72,10,9,2,9,4,,0.05,5,Rain,360
2013-6-7,81,74,66,70,67,64,100,85,58,29.92,29.82,29.72,10,8,1,10,4,,0.28,5,Rain-Thunderstorm,302
2013-6-8,87,75,63,72,67,60,94,82,53,30.06,29.96,29.90,10,9,0,21,2,28,0.74,3,Fog-Rain-Hail-Thunderstorm,131
2013-6-9,81,76,70,70,69,68,94,89,67,30.07,30.02,29.96,10,10,5,14,5,21,0.17,5,Rain-Thunderstorm,172
2013-6-10,82,76,71,73,71,70,94,87,71,30.11,30.03,29.98,10,8,0,20,7,34,1.28,5,Fog-Rain-Thunderstorm,209
2013-6-11,91,82,73,75,72,67,97,79,48,30.10,30.06,30.00,10,7,1,8,5,,0.00,5,,251
2013-6-12,93,83,73,75,71,68,93,70,44,30.08,30.04,29.99,10,9,1,8,2,,0.00,1,,304
2013-6-13,93,83,73,73,71,68,91,67,45,30.01,29.93,29.83,10,10,7,14,5,23,0.00,1,Thunderstorm,270
2013-6-14,90,82,72,74,69,61,94,74,39,29.96,29.90,29.84,10,9,4,10,5,16,0.08,5,,5
2013-6-15,91,80,69,70,65,62,81,62,42,30.04,30.01,29.95,10,10,10,13,4,,0.00,1,,86
2013-6-16,91,81,71,73,71,67,90,71,47,30.10,30.04,29.98,10,10,8,7,3,,0.00,3,,159
2013-6-17,91,80,69,76,71,66,97,85,53,30.04,30.00,29.96,10,8,0,13,4,20,0.44,5,Fog-Rain-Thunderstorm,189
2013-6-18,89,80,71,74,72,69,97,81,55,30.00,29.95,29.89,10,10,4,13,6,21,0.06,3,Rain-Thunderstorm,238
2013-6-19,82,76,71,73,71,69,97,84,69,30.04,29.99,29.93,10,9,2,8,2,,0.22,5,Rain-Thunderstorm,231
2013-6-20,88,77,66,72,69,65,94,79,55,30.12,30.07,30.02,10,9,5,12,2,18,0.01,2,,70
2013-6-21,88,79,70,72,69,65,90,73,49,30.17,30.12,30.08,10,10,10,9,5,,0.00,2,,90
2013-6-22,88,78,69,70,67,63,87,68,48,30.16,30.10,30.03,10,10,10,8,3,,0.00,1,,90
2013-6-23,87,78,69,74,71,68,100,84,57,30.15,30.10,30.06,10,8,2,10,4,,0.09,4,Rain,143
2013-6-24,86,78,71,74,72,70,100,85,61,30.20,30.14,30.10,10,10,5,14,2,,0.01,4,Thunderstorm,163
2013-6-25,91,80,70,73,71,68,93,76,47,30.17,30.10,30.02,10,10,10,12,2,,0.00,3,Rain-Thunderstorm,167
2013-6-26,91,82,72,74,72,69,93,73,50,30.09,30.02,29.96,10,10,9,8,4,,0.01,1,Hail,221
2013-6-27,91,83,75,75,73,72,94,74,52,30.00,29.95,29.88,10,10,10,10,5,16,0.00,1,,256
2013-6-28,93,82,71,76,72,68,94,84,52,29.91,29.83,29.75,10,9,2,20,5,40,0.66,2,Rain-Thunderstorm,240
2013-6-29,87,79,71,73,71,68,96,87,61,29.79,29.75,29.69,10,8,1,17,2,34,0.47,5,Rain-Thunderstorm,223
2013-6-30,89,80,69,72,68,60,97,75,40,29.78,29.74,29.70,10,9,4,8,1,,0.00,4,,319